,,,PA_Meas_PMT16A,,PR_Meas_QMR101_102,,RH_Meas_QMH101,,SR_Meas_QMS101,,TA_Meas_QMH101,,GenWind,,GenWind,
date,time,status,PA,status,PR,status,RH,status,SR,status,TA,status,DirAvg,status,SpdAvg,
2014-11-26, 00:00:04,VALID,1008.19,VALID,0,INVALID,142.152,VALID,0.112112,VALID,23.9455,VALID,187,VALID,0,
2014-11-26, 00:01:04,VALID,1008.19,VALID,0,INVALID,142.182,VALID,0,VALID,23.9473,VALID,187,VALID,0,
2014-11-26, 00:02:04,VALID,1008.17,VALID,0,INVALID,142.213,VALID,0,VALID,23.9455,VALID,187,VALID,0,
2014-11-26, 00:03:04,VALID,1008.13,VALID,0,INVALID,142.205,VALID,0,VALID,23.9473,VALID,187,VALID,0,
2014-11-26, 00:04:04,VALID,1008.15,VALID,0,INVALID,142.213,VALID,0,VALID,23.9473,VALID,187,VALID,0,
2014-11-26, 00:05:04,VALID,1008.11,VALID,0,INVALID,142.19,VALID,0,VALID,23.9473,VALID,187,VALID,0,
2014-11-26, 00:06:04,VALID,1008.14,VALID,0,INVALID,142.266,VALID,0,VALID,23.9473,VALID,187,VALID,0,
2014-11-26, 00:07:04,VALID,1008.12,VALID,0,INVALID,142.258,VALID,0,VALID,23.9473,VALID,187,VALID,0,
2014-11-26, 00:08:04,VALID,1008.11,VALID,0,INVALID,142.266,VALID,0,VALID,23.9473,VALID,187,VALID,0,
2014-11-26, 00:09:04,VALID,1008.11,VALID,0,INVALID,142.274,VALID,0,VALID,23.9278,VALID,187,VALID,0,
2014-11-26, 00:10:04,VALID,1008.09,VALID,0,INVALID,142.243,VALID,0,VALID,23.9084,VALID,187,VALID,0,
2014-11-26, 00:11:04,VALID,1008.1,VALID,0,INVALID,142.228,VALID,0,VALID,23.8889,VALID,187,VALID,0,
2014-11-26, 00:12:04,VALID,1008.07,VALID,0,INVALID,142.297,VALID,0,VALID,23.8889,VALID,187,VALID,0,
2014-11-26, 00:13:04,VALID,1008.08,VALID,0,INVALID,142.38,VALID,0,VALID,23.8889,VALID,187,VALID,0,
2014-11-26, 00:14:04,VALID,1008.08,VALID,0,INVALID,142.403,VALID,0,VALID,23.8889,VALID,187,VALID,0,
2014-11-26, 00:15:04,VALID,1008.08,VALID,0,INVALID,142.365,VALID,0,VALID,23.9084,VALID,187,VALID,0,
2014-11-26, 00:16:04,VALID,1008.11,VALID,0,INVALID,142.312,VALID,0,VALID,23.9278,VALID,187,VALID,0,
2014-11-26, 00:17:04,VALID,1008.15,VALID,0,INVALID,142.243,VALID,0,VALID,23.9278,VALID,187,VALID,0,
2014-11-26, 00:18:04,VALID,1008.13,VALID,0,INVALID,142.182,VALID,0,VALID,23.9278,VALID,187,VALID,0,
2014-11-26, 00:19:04,VALID,1008.1,VALID,0,INVALID,142.182,VALID,0,VALID,23.9065,VALID,187,VALID,0,
2014-11-26, 00:20:04,VALID,1008.08,VALID,0,INVALID,142.182,VALID,0,VALID,23.9278,VALID,187,VALID,0,
2014-11-26, 00:21:04,VALID,1008.08,VALID,0,INVALID,142.205,VALID,0,VALID,23.8871,VALID,187,VALID,0,
2014-11-26, 00:22:04,VALID,1008.05,VALID,0,INVALID,142.236,VALID,0,VALID,23.9084,VALID,187,VALID,0,
2014-11-26, 00:23:04,VALID,1008.05,VALID,0,INVALID,142.258,VALID,0,VALID,23.8889,VALID,187,VALID,0,
2014-11-26, 00:24:04,VALID,1008.05,VALID,0,INVALID,142.243,VALID,0,VALID,23.8889,VALID,187,VALID,0,
2014-11-26, 00:25:04,VALID,1008.06,VALID,0,INVALID,142.251,VALID,0,VALID,23.8694,VALID,187,VALID,0,
2014-11-26, 00:26:04,VALID,1008.06,VALID,0,INVALID,142.243,VALID,0,VALID,23.8694,VALID,187,VALID,0,
2014-11-26, 00:27:04,VALID,1008.06,VALID,0,INVALID,142.19,VALID,0,VALID,23.8694,VALID,187,VALID,0,
2014-11-26, 00:28:04,VALID,1008.03,VALID,0,INVALID,142.136,VALID,0,VALID,23.8499,VALID,187,VALID,0,
2014-11-26, 00:29:04,VALID,1008.04,VALID,0,INVALID,142.114,VALID,0,VALID,23.8304,VALID,187,VALID,0,
2014-11-26, 00:30:04,VALID,1007.98,VALID,0,INVALID,142.075,VALID,0,VALID,23.8091,VALID,187,VALID,0,
2014-11-26, 00:31:04,VALID,1008.02,VALID,0,INVALID,142.06,VALID,0,VALID,23.8304,VALID,187,VALID,0,
2014-11-26, 00:32:04,VALID,1008,VALID,0,INVALID,142.06,VALID,0,VALID,23.8304,VALID,187,VALID,0,
2014-11-26, 00:33:04,VALID,1007.98,VALID,0,INVALID,141.938,VALID,0,VALID,23.8499,VALID,187,VALID,0,
2014-11-26, 00:34:04,VALID,1007.96,VALID,0,INVALID,141.801,VALID,0,VALID,23.8694,VALID,187,VALID,0,
2014-11-26, 00:35:04,VALID,1007.93,VALID,0,INVALID,141.686,VALID,0,VALID,23.8676,VALID,187,VALID,0,
2014-11-26, 00:36:04,VALID,1007.94,VALID,0,INVALID,141.61,VALID,0,VALID,23.8871,VALID,187,VALID,0,
2014-11-26, 00:37:04,VALID,1007.92,VALID,0,INVALID,141.572,VALID,0,VALID,23.8889,VALID,187,VALID,0,
2014-11-26, 00:38:04,VALID,1007.92,VALID,0,INVALID,141.549,VALID,0,VALID,23.9278,VALID,187,VALID,0,
2014-11-26, 00:39:04,VALID,1007.9,VALID,0,INVALID,141.526,VALID,0,VALID,23.9278,VALID,187,VALID,0,
2014-11-26, 00:40:04,VALID,1007.84,VALID,0,INVALID,141.526,VALID,0,VALID,23.9473,VALID,187,VALID,0,
2014-11-26, 00:41:04,VALID,1007.81,VALID,0,INVALID,141.549,VALID,0.112112,VALID,23.9455,VALID,187,VALID,0,
2014-11-26, 00:42:04,VALID,1007.77,VALID,0,INVALID,141.587,VALID,0,VALID,23.9668,VALID,187,VALID,0,
2014-11-26, 00:43:04,VALID,1007.75,VALID,0,INVALID,141.633,VALID,0,VALID,23.9668,VALID,187,VALID,0,
2014-11-26, 00:44:04,VALID,1007.74,VALID,0,INVALID,141.694,VALID,0,VALID,23.9668,VALID,187,VALID,0,
2014-11-26, 00:45:04,VALID,1007.74,VALID,0,INVALID,141.778,VALID,0,VALID,23.9668,VALID,187,VALID,0,
2014-11-26, 00:46:04,VALID,1007.75,VALID,0,INVALID,141.847,VALID,0.112112,VALID,23.9668,VALID,187,VALID,0,
2014-11-26, 00:47:04,VALID,1007.73,VALID,0,INVALID,141.809,VALID,0,VALID,23.9473,VALID,187,VALID,0,
2014-11-26, 00:48:04,VALID,1007.71,VALID,0,INVALID,141.847,VALID,0,VALID,23.9473,VALID,187,VALID,0,
2014-11-26, 00:49:04,VALID,1007.72,VALID,0,INVALID,141.877,VALID,0,VALID,23.9278,VALID,187,VALID,0,
2014-11-26, 00:50:04,VALID,1007.71,VALID,0,INVALID,141.915,VALID,0,VALID,23.9278,VALID,187,VALID,0,
2014-11-26, 00:51:04,VALID,1007.7,VALID,0,INVALID,141.87,VALID,0,VALID,23.9065,VALID,187,VALID,0,
2014-11-26, 00:52:04,VALID,1007.7,VALID,0,INVALID,141.923,VALID,0,VALID,23.9278,VALID,187,VALID,0,
2014-11-26, 00:53:04,VALID,1007.68,VALID,0,INVALID,141.885,VALID,0,VALID,23.926,VALID,187,VALID,0,
2014-11-26, 00:54:04,VALID,1007.67,VALID,0,INVALID,141.885,VALID,0,VALID,23.9278,VALID,187,VALID,0,
2014-11-26, 00:55:04,VALID,1007.63,VALID,0,INVALID,141.786,VALID,0,VALID,23.9455,VALID,187,VALID,0,
2014-11-26, 00:56:04,VALID,1007.62,VALID,0,INVALID,141.656,VALID,0,VALID,23.9863,VALID,187,VALID,0,
2014-11-26, 00:57:04,VALID,1007.58,VALID,0,INVALID,141.587,VALID,0,VALID,24.0058,VALID,187,VALID,0,
2014-11-26, 00:58:04,VALID,1007.58,VALID,0,INVALID,141.656,VALID,0,VALID,24.0058,VALID,187,VALID,0,
2014-11-26, 00:59:04,VALID,1007.55,VALID,0,INVALID,141.717,VALID,0,VALID,24.0058,VALID,187,VALID,0,
2014-11-26, 01:00:04,VALID,1007.53,VALID,0,INVALID,141.763,VALID,0,VALID,23.9845,VALID,187,VALID,0,
2014-11-26, 01:01:04,VALID,1007.47,VALID,0,INVALID,141.877,VALID,0,VALID,23.965,VALID,187,VALID,0,
2014-11-26, 01:02:04,VALID,1007.48,VALID,0,INVALID,141.953,VALID,0,VALID,23.9668,VALID,187,VALID,0,
2014-11-26, 01:03:04,VALID,1007.45,VALID,0,INVALID,142.014,VALID,0,VALID,23.9863,VALID,187,VALID,0,
2014-11-26, 01:04:04,VALID,1007.48,VALID,0,INVALID,142.083,VALID,0,VALID,23.9668,VALID,187,VALID,0,
2014-11-26, 01:05:04,VALID,1007.47,VALID,0,INVALID,142.121,VALID,0,VALID,23.9863,VALID,187,VALID,0,
2014-11-26, 01:06:04,VALID,1007.53,VALID,0,INVALID,142.121,VALID,0,VALID,24.0058,VALID,187,VALID,0,
2014-11-26, 01:07:04,VALID,1007.59,VALID,0,INVALID,142.091,VALID,0,VALID,24.0448,VALID,188,VALID,0,
2014-11-26, 01:08:04,VALID,1007.6,VALID,0,INVALID,142.091,VALID,0,VALID,24.0448,VALID,188,VALID,0,
2014-11-26, 01:09:04,VALID,1007.6,VALID,0,INVALID,142.167,VALID,0,VALID,24.0235,VALID,188,VALID,0,
2014-11-26, 01:10:04,VALID,1007.6,VALID,0,INVALID,142.205,VALID,0,VALID,24.0643,VALID,188,VALID,0,
2014-11-26, 01:11:04,VALID,1007.61,VALID,0,INVALID,142.251,VALID,0,VALID,24.0837,VALID,188,VALID,0,
2014-11-26, 01:12:04,VALID,1007.61,VALID,0,INVALID,142.297,VALID,0,VALID,24.1032,VALID,188,VALID,0,
2014-11-26, 01:13:04,VALID,1007.6,VALID,0,INVALID,142.327,VALID,0,VALID,24.1032,VALID,188,VALID,0,
2014-11-26, 01:14:04,VALID,1007.55,VALID,0,INVALID,142.335,VALID,0,VALID,24.1032,VALID,188,VALID,0,
2014-11-26, 01:15:04,VALID,1007.51,VALID,0,INVALID,142.319,VALID,0,VALID,24.1209,VALID,188,VALID,0,
2014-11-26, 01:16:04,VALID,1007.51,VALID,0,INVALID,142.297,VALID,0,VALID,24.1422,VALID,188,VALID,0,
2014-11-26, 01:17:04,VALID,1007.53,VALID,0,INVALID,142.266,VALID,0,VALID,24.1812,VALID,188,VALID,0,
2014-11-26, 01:18:04,VALID,1007.51,VALID,0,INVALID,142.236,VALID,0,VALID,24.2007,VALID,188,VALID,0,
2014-11-26, 01:19:04,VALID,1007.53,VALID,0,INVALID,142.136,VALID,0,VALID,24.2415,VALID,215,VALID,0,
2014-11-26, 01:20:04,VALID,1007.52,VALID,0,INVALID,141.9,VALID,0.112112,VALID,24.2183,VALID,215,VALID,0,
2014-11-26, 01:21:04,VALID,1007.47,VALID,0,INVALID,141.542,VALID,0,VALID,24.2786,VALID,215,VALID,0,
2014-11-26, 01:22:04,VALID,1007.51,VALID,0,INVALID,140.939,VALID,0,VALID,24.3176,VALID,215,VALID,0,
2014-11-26, 01:23:04,VALID,1007.56,VALID,0,INVALID,140.421,VALID,0,VALID,24.3371,VALID,215,VALID,0,
2014-11-26, 01:24:04,VALID,1007.56,VALID,0,INVALID,139.894,VALID,0,VALID,24.3352,VALID,215,VALID,0,
2014-11-26, 01:25:04,VALID,1007.57,VALID,0,INVALID,139.239,VALID,0,VALID,24.3761,VALID,215,VALID,0,
2014-11-26, 01:26:04,VALID,1007.55,VALID,0,INVALID,139.262,VALID,0,VALID,24.415,VALID,215,VALID,0,
2014-11-26, 01:27:04,VALID,1007.58,VALID,0,INVALID,139.193,VALID,0,VALID,24.4132,VALID,215,VALID,0,
2014-11-26, 01:28:04,VALID,1007.56,VALID,0,INVALID,139.384,VALID,0,VALID,24.4345,VALID,215,VALID,0,
2014-11-26, 01:29:04,VALID,1007.53,VALID,0,INVALID,139.46,VALID,0,VALID,24.454,VALID,215,VALID,0,
2014-11-26, 01:30:04,VALID,1007.53,VALID,0,INVALID,139.406,VALID,0,VALID,24.454,VALID,215,VALID,0,
2014-11-26, 01:31:04,VALID,1007.51,VALID,0,INVALID,139.62,VALID,0,VALID,24.4735,VALID,215,VALID,0,
2014-11-26, 01:32:04,VALID,1007.5,VALID,0,INVALID,140.207,VALID,0,VALID,24.493,VALID,215,VALID,0,
2014-11-26, 01:33:04,VALID,1007.49,VALID,0,INVALID,140.39,VALID,0,VALID,24.5125,VALID,215,VALID,0,
2014-11-26, 01:34:04,VALID,1007.48,VALID,0,INVALID,140.337,VALID,0,VALID,24.532,VALID,215,VALID,0,
2014-11-26, 01:35:04,VALID,1007.46,VALID,0,INVALID,140.474,VALID,0,VALID,24.5106,VALID,215,VALID,0,
2014-11-26, 01:36:04,VALID,1007.44,VALID,0,INVALID,140.543,VALID,0,VALID,24.532,VALID,215,VALID,0,
2014-11-26, 01:37:04,VALID,1007.41,VALID,0,INVALID,140.642,VALID,0,VALID,24.5106,VALID,215,VALID,0,
2014-11-26, 01:38:04,VALID,1007.41,VALID,0,INVALID,140.726,VALID,0,VALID,24.5106,VALID,215,VALID,0,
2014-11-26, 01:39:04,VALID,1007.41,VALID,0,INVALID,140.665,VALID,0,VALID,24.5515,VALID,215,VALID,0,
2014-11-26, 01:40:04,VALID,1007.41,VALID,0,INVALID,140.665,VALID,0,VALID,24.5301,VALID,215,VALID,0,
2014-11-26, 01:41:04,VALID,1007.37,VALID,0,INVALID,140.718,VALID,0,VALID,24.5496,VALID,215,VALID,0,
2014-11-26, 01:42:04,VALID,1007.37,VALID,0,INVALID,140.703,VALID,0,VALID,24.571,VALID,215,VALID,0,
2014-11-26, 01:43:04,VALID,1007.37,VALID,0,INVALID,140.733,VALID,0,VALID,24.571,VALID,215,VALID,0,
2014-11-26, 01:44:04,VALID,1007.35,VALID,0,INVALID,140.832,VALID,0,VALID,24.5515,VALID,215,VALID,0,
2014-11-26, 01:45:04,VALID,1007.36,VALID,0,INVALID,140.771,VALID,0,VALID,24.5515,VALID,215,VALID,0,
2014-11-26, 01:46:04,VALID,1007.38,VALID,0,INVALID,140.825,VALID,0,VALID,24.532,VALID,215,VALID,0,
2014-11-26, 01:47:04,VALID,1007.38,VALID,0,INVALID,141.031,VALID,0,VALID,24.5515,VALID,215,VALID,0,
2014-11-26, 01:48:04,VALID,1007.36,VALID,0,INVALID,141.252,VALID,0,VALID,24.5515,VALID,215,VALID,0,
2014-11-26, 01:49:04,VALID,1007.37,VALID,0,INVALID,141.488,VALID,0,VALID,24.5515,VALID,215,VALID,0,
2014-11-26, 01:50:04,VALID,1007.36,VALID,0,INVALID,141.709,VALID,0,VALID,24.5301,VALID,215,VALID,0,
2014-11-26, 01:51:04,VALID,1007.36,VALID,0,INVALID,141.946,VALID,0,VALID,24.5515,VALID,215,VALID,0,
2014-11-26, 01:52:04,VALID,1007.33,VALID,0,INVALID,142.022,VALID,0,VALID,24.5301,VALID,215,VALID,0,
2014-11-26, 01:53:04,VALID,1007.31,VALID,0,INVALID,142.152,VALID,0,VALID,24.571,VALID,215,VALID,0,
2014-11-26, 01:54:04,VALID,1007.32,VALID,0,INVALID,142.175,VALID,0,VALID,24.532,VALID,215,VALID,0,
2014-11-26, 01:55:04,VALID,1007.31,VALID,0,INVALID,142.236,VALID,0,VALID,24.5515,VALID,215,VALID,0,
2014-11-26, 01:56:04,VALID,1007.3,VALID,0,INVALID,142.266,VALID,0,VALID,24.5515,VALID,215,VALID,0,
2014-11-26, 01:57:04,VALID,1007.29,VALID,0,INVALID,142.403,VALID,0,VALID,24.5515,VALID,215,VALID,0,
2014-11-26, 01:58:04,VALID,1007.31,VALID,0,INVALID,142.464,VALID,0,VALID,24.5106,VALID,215,VALID,0,
2014-11-26, 01:59:04,VALID,1007.27,VALID,0,INVALID,142.48,VALID,0,VALID,24.532,VALID,215,VALID,0,
2014-11-26, 02:00:04,VALID,1007.27,VALID,0,INVALID,142.487,VALID,0,VALID,24.5515,VALID,215,VALID,0,
2014-11-26, 02:01:04,VALID,1007.25,VALID,0,INVALID,142.487,VALID,0.112112,VALID,24.5515,VALID,215,VALID,0,
2014-11-26, 02:02:04,VALID,1007.24,VALID,0,INVALID,142.525,VALID,0.112112,VALID,24.5106,VALID,215,VALID,0,
2014-11-26, 02:03:04,VALID,1007.23,VALID,0,INVALID,142.563,VALID,0,VALID,24.5106,VALID,215,VALID,0,
2014-11-26, 02:04:04,VALID,1007.23,VALID,0,INVALID,142.51,VALID,0,VALID,24.532,VALID,215,VALID,0,
2014-11-26, 02:05:04,VALID,1007.23,VALID,0,INVALID,142.556,VALID,0,VALID,24.532,VALID,215,VALID,0,
2014-11-26, 02:06:04,VALID,1007.23,VALID,0,INVALID,142.563,VALID,0,VALID,24.532,VALID,215,VALID,0,
2014-11-26, 02:07:04,VALID,1007.21,VALID,0,INVALID,142.518,VALID,0.112112,VALID,24.4911,VALID,215,VALID,0,
2014-11-26, 02:08:04,VALID,1007.22,VALID,0,INVALID,142.518,VALID,0,VALID,24.5125,VALID,215,VALID,0,
2014-11-26, 02:09:04,VALID,1007.2,VALID,0,INVALID,142.487,VALID,0,VALID,24.4911,VALID,215,VALID,0,
2014-11-26, 02:10:04,VALID,1007.2,VALID,0,INVALID,142.472,VALID,0,VALID,24.5125,VALID,215,VALID,0,
2014-11-26, 02:11:04,VALID,1007.19,VALID,0,INVALID,142.403,VALID,0,VALID,24.493,VALID,215,VALID,0,
2014-11-26, 02:12:04,VALID,1007.17,VALID,0,INVALID,142.403,VALID,0,VALID,24.5125,VALID,215,VALID,0,
2014-11-26, 02:13:04,VALID,1007.18,VALID,0,INVALID,142.335,VALID,0.112112,VALID,24.5125,VALID,215,VALID,0,
2014-11-26, 02:14:04,VALID,1007.15,VALID,0,INVALID,142.365,VALID,0,VALID,24.5125,VALID,215,VALID,0,
2014-11-26, 02:15:04,VALID,1007.17,VALID,0,INVALID,142.403,VALID,0,VALID,24.5125,VALID,215,VALID,0,
2014-11-26, 02:16:04,VALID,1007.14,VALID,0,INVALID,142.396,VALID,0,VALID,24.4911,VALID,215,VALID,0,
2014-11-26, 02:17:04,VALID,1007.12,VALID,0,INVALID,142.281,VALID,0,VALID,24.4911,VALID,215,VALID,0,
2014-11-26, 02:18:04,VALID,1007.1,VALID,0,INVALID,142.144,VALID,0,VALID,24.493,VALID,215,VALID,0,
2014-11-26, 02:19:04,VALID,1007.12,VALID,0,INVALID,142.098,VALID,0,VALID,24.4735,VALID,215,VALID,0,
2014-11-26, 02:20:04,VALID,1007.09,VALID,0,INVALID,142.175,VALID,0,VALID,24.493,VALID,215,VALID,0,
2014-11-26, 02:21:04,VALID,1007.09,VALID,0,INVALID,142.205,VALID,0,VALID,24.4735,VALID,215,VALID,0,
2014-11-26, 02:22:04,VALID,1007.07,VALID,0,INVALID,142.136,VALID,0,VALID,24.5125,VALID,215,VALID,0,
2014-11-26, 02:23:04,VALID,1007.06,VALID,0,INVALID,141.976,VALID,0.112112,VALID,24.493,VALID,215,VALID,0,
2014-11-26, 02:24:04,VALID,1007.03,VALID,0,INVALID,141.77,VALID,0,VALID,24.4522,VALID,215,VALID,0,
2014-11-26, 02:25:04,VALID,1007.01,VALID,0,INVALID,141.793,VALID,0,VALID,24.493,VALID,215,VALID,0,
2014-11-26, 02:26:04,VALID,1007.01,VALID,0,INVALID,141.854,VALID,0,VALID,24.4735,VALID,215,VALID,0,
2014-11-26, 02:27:04,VALID,1006.98,VALID,0,INVALID,141.816,VALID,0,VALID,24.4735,VALID,215,VALID,0,
2014-11-26, 02:28:04,VALID,1006.95,VALID,0,INVALID,141.931,VALID,0,VALID,24.454,VALID,215,VALID,0,
2014-11-26, 02:29:04,VALID,1006.95,VALID,0,INVALID,142.053,VALID,0,VALID,24.454,VALID,215,VALID,0,
2014-11-26, 02:30:04,VALID,1006.93,VALID,0,INVALID,142.06,VALID,0,VALID,24.4522,VALID,215,VALID,0,
2014-11-26, 02:31:04,VALID,1006.93,VALID,0,INVALID,141.908,VALID,0,VALID,24.454,VALID,215,VALID,0,
2014-11-26, 02:32:04,VALID,1006.93,VALID,0,INVALID,141.77,VALID,0.112112,VALID,24.4345,VALID,215,VALID,0,
2014-11-26, 02:33:04,VALID,1006.93,VALID,0,INVALID,141.763,VALID,0,VALID,24.415,VALID,215,VALID,0,
2014-11-26, 02:34:04,VALID,1006.92,VALID,0,INVALID,142.098,VALID,0,VALID,24.3956,VALID,215,VALID,0,
2014-11-26, 02:35:04,VALID,1006.9,VALID,0,INVALID,142.472,VALID,0,VALID,24.3761,VALID,215,VALID,0,
2014-11-26, 02:36:04,VALID,1006.91,VALID,0,INVALID,142.487,VALID,0.112112,VALID,24.3566,VALID,215,VALID,0,
2014-11-26, 02:37:04,VALID,1006.9,VALID,0,INVALID,142.525,VALID,0.112112,VALID,24.3158,VALID,215,VALID,0,
2014-11-26, 02:38:04,VALID,1006.88,VALID,0,INVALID,142.571,VALID,0,VALID,24.2981,VALID,215,VALID,0,
2014-11-26, 02:39:05,VALID,1006.89,VALID,0,INVALID,142.701,VALID,0.112112,VALID,24.2378,VALID,215,VALID,0,
2014-11-26, 02:40:05,VALID,1006.85,VALID,0,INVALID,142.724,VALID,0,VALID,24.2202,VALID,215,VALID,0,
2014-11-26, 02:41:05,VALID,1006.85,VALID,0,INVALID,142.602,VALID,0,VALID,24.1617,VALID,215,VALID,0,
2014-11-26, 02:42:05,VALID,1006.85,VALID,0,INVALID,142.731,VALID,0.112112,VALID,24.1227,VALID,215,VALID,0,
2014-11-26, 02:43:05,VALID,1006.81,VALID,0,INVALID,142.746,VALID,0,VALID,24.0837,VALID,215,VALID,0,
2014-11-26, 02:44:05,VALID,1006.79,VALID,0,INVALID,142.746,VALID,0,VALID,24.0235,VALID,215,VALID,0,
2014-11-26, 02:45:05,VALID,1006.75,VALID,0,INVALID,142.8,VALID,0,VALID,24.0058,VALID,215,VALID,0,
2014-11-26, 02:46:05,VALID,1006.73,VALID,0,INVALID,142.746,VALID,0,VALID,23.9863,VALID,215,VALID,0,
2014-11-26, 02:47:05,VALID,1006.69,VALID,0,INVALID,142.678,VALID,0.112112,VALID,23.9455,VALID,215,VALID,0,
2014-11-26, 02:48:05,VALID,1006.69,VALID,0,INVALID,142.594,VALID,0,VALID,23.9668,VALID,215,VALID,0,
2014-11-26, 02:49:05,VALID,1006.68,VALID,0,INVALID,142.495,VALID,0,VALID,23.9065,VALID,215,VALID,0,
2014-11-26, 02:50:05,VALID,1006.67,VALID,0,INVALID,142.426,VALID,0,VALID,23.9065,VALID,215,VALID,0,
2014-11-26, 02:51:05,VALID,1006.64,VALID,0,INVALID,142.327,VALID,0,VALID,23.8889,VALID,215,VALID,0,
2014-11-26, 02:52:05,VALID,1006.62,VALID,0,INVALID,142.182,VALID,0,VALID,23.8676,VALID,215,VALID,0,
2014-11-26, 02:53:05,VALID,1006.6,VALID,0,INVALID,141.961,VALID,0,VALID,23.8889,VALID,215,VALID,0,
2014-11-26, 02:54:05,VALID,1006.63,VALID,0,INVALID,141.793,VALID,0.112112,VALID,23.8889,VALID,215,VALID,0,
2014-11-26, 02:55:05,VALID,1006.64,VALID,0,INVALID,141.656,VALID,0,VALID,23.8481,VALID,215,VALID,0,
2014-11-26, 02:56:05,VALID,1006.65,VALID,0,INVALID,141.625,VALID,0,VALID,23.8499,VALID,215,VALID,0,
2014-11-26, 02:57:05,VALID,1006.68,VALID,0,INVALID,141.542,VALID,0.112112,VALID,23.8304,VALID,215,VALID,0,
2014-11-26, 02:58:05,VALID,1006.65,VALID,0,INVALID,141.564,VALID,0,VALID,23.8109,VALID,215,VALID,0,
2014-11-26, 02:59:05,VALID,1006.67,VALID,0,INVALID,141.381,VALID,0,VALID,23.8109,VALID,215,VALID,0,
2014-11-26, 03:00:05,VALID,1006.67,VALID,0,INVALID,141.252,VALID,0.112112,VALID,23.7896,VALID,215,VALID,0,
2014-11-26, 03:01:05,VALID,1006.67,VALID,0,INVALID,141.115,VALID,0.112112,VALID,23.7896,VALID,215,VALID,0,
2014-11-26, 03:02:05,VALID,1006.68,VALID,0,INVALID,140.893,VALID,0.112112,VALID,23.8109,VALID,215,VALID,0,
2014-11-26, 03:03:05,VALID,1006.66,VALID,0,INVALID,140.688,VALID,0.112112,VALID,23.8091,VALID,215,VALID,0,
2014-11-26, 03:04:05,VALID,1006.67,VALID,0,INVALID,140.55,VALID,0.112112,VALID,23.8304,VALID,215,VALID,0,
2014-11-26, 03:05:05,VALID,1006.67,VALID,0,INVALID,140.337,VALID,0.112112,VALID,23.8286,VALID,215,VALID,0,
2014-11-26, 03:06:05,VALID,1006.67,VALID,0,INVALID,140.154,VALID,0.112112,VALID,23.8091,VALID,215,VALID,0,
2014-11-26, 03:07:05,VALID,1006.7,VALID,0,INVALID,140.116,VALID,0.112112,VALID,23.8304,VALID,215,VALID,0,
2014-11-26, 03:08:05,VALID,1006.69,VALID,0,INVALID,139.971,VALID,0.112112,VALID,23.8304,VALID,215,VALID,0,
2014-11-26, 03:09:05,VALID,1006.72,VALID,0,INVALID,139.841,VALID,0.112112,VALID,23.8091,VALID,215,VALID,0,
2014-11-26, 03:10:05,VALID,1006.78,VALID,0,INVALID,139.78,VALID,0.112112,VALID,23.8091,VALID,215,VALID,0,
2014-11-26, 03:11:05,VALID,1006.76,VALID,0,INVALID,139.597,VALID,0,VALID,23.8286,VALID,215,VALID,0,
2014-11-26, 03:12:05,VALID,1006.8,VALID,0,INVALID,139.406,VALID,0.112112,VALID,23.8481,VALID,215,VALID,0,
2014-11-26, 03:13:05,VALID,1006.8,VALID,0,INVALID,139.216,VALID,0.112112,VALID,23.8481,VALID,215,VALID,0,
2014-11-26, 03:14:05,VALID,1006.82,VALID,0,INVALID,139.002,VALID,0.112112,VALID,23.8481,VALID,215,VALID,0,
2014-11-26, 03:15:05,VALID,1006.8,VALID,0,INVALID,138.857,VALID,0.112112,VALID,23.8676,VALID,215,VALID,0,
2014-11-26, 03:16:05,VALID,1006.83,VALID,0,INVALID,138.712,VALID,0.112112,VALID,23.8676,VALID,215,VALID,0,
2014-11-26, 03:17:05,VALID,1006.84,VALID,0,INVALID,138.674,VALID,0,VALID,23.8481,VALID,215,VALID,0,
2014-11-26, 03:18:05,VALID,1006.84,VALID,0,INVALID,138.59,VALID,0.112112,VALID,23.8694,VALID,215,VALID,0,
2014-11-26, 03:19:05,VALID,1006.85,VALID,0,INVALID,138.568,VALID,0.112112,VALID,23.8694,VALID,215,VALID,0,
2014-11-26, 03:20:05,VALID,1006.83,VALID,0,INVALID,138.499,VALID,0.112112,VALID,23.8694,VALID,215,VALID,0,
2014-11-26, 03:21:05,VALID,1006.88,VALID,0,INVALID,138.484,VALID,0,VALID,23.8481,VALID,215,VALID,0,
2014-11-26, 03:22:05,VALID,1006.87,VALID,0,INVALID,138.423,VALID,0,VALID,23.8694,VALID,215,VALID,0,
2014-11-26, 03:23:05,VALID,1006.9,VALID,0,INVALID,138.362,VALID,0.112112,VALID,23.8694,VALID,215,VALID,0,
2014-11-26, 03:24:05,VALID,1006.92,VALID,0,INVALID,138.316,VALID,0.112112,VALID,23.8481,VALID,215,VALID,0,
2014-11-26, 03:25:05,VALID,1006.96,VALID,0,INVALID,138.285,VALID,0.112112,VALID,23.8481,VALID,215,VALID,0,
2014-11-26, 03:26:05,VALID,1006.98,VALID,0,INVALID,138.232,VALID,0,VALID,23.8694,VALID,215,VALID,0,
2014-11-26, 03:27:05,VALID,1006.98,VALID,0,INVALID,138.194,VALID,0,VALID,23.8499,VALID,215,VALID,0,
2014-11-26, 03:28:05,VALID,1006.96,VALID,0,INVALID,138.194,VALID,0.112112,VALID,23.8286,VALID,215,VALID,0,
2014-11-26, 03:29:05,VALID,1006.97,VALID,0,INVALID,138.072,VALID,0.112112,VALID,23.8286,VALID,215,VALID,0,
2014-11-26, 03:30:05,VALID,1007.01,VALID,0,INVALID,138.057,VALID,0,VALID,23.8499,VALID,215,VALID,0,
2014-11-26, 03:31:05,VALID,1007,VALID,0,INVALID,138.049,VALID,0.112112,VALID,23.8286,VALID,215,VALID,0,
2014-11-26, 03:32:05,VALID,1007.03,VALID,0,INVALID,137.988,VALID,0.112112,VALID,23.8286,VALID,215,VALID,0,
2014-11-26, 03:33:05,VALID,1007.04,VALID,0,INVALID,137.98,VALID,0.112112,VALID,23.8286,VALID,215,VALID,0,
2014-11-26, 03:34:05,VALID,1007.04,VALID,0,INVALID,138.011,VALID,0.112112,VALID,23.8091,VALID,215,VALID,0,
2014-11-26, 03:35:05,VALID,1007.05,VALID,0,INVALID,138.034,VALID,0.112112,VALID,23.8109,VALID,215,VALID,0,
2014-11-26, 03:36:05,VALID,1007.07,VALID,0,INVALID,138.026,VALID,0.112112,VALID,23.7896,VALID,215,VALID,0,
2014-11-26, 03:37:05,VALID,1007.06,VALID,0,INVALID,138.011,VALID,0.112112,VALID,23.8109,VALID,215,VALID,0,
2014-11-26, 03:38:05,VALID,1007.09,VALID,0,INVALID,138.049,VALID,0.112112,VALID,23.8109,VALID,215,VALID,0,
2014-11-26, 03:39:05,VALID,1007.07,VALID,0,INVALID,138.095,VALID,0.112112,VALID,23.7701,VALID,215,VALID,0,
2014-11-26, 03:40:05,VALID,1007.06,VALID,0,INVALID,138.072,VALID,0.112112,VALID,23.7914,VALID,215,VALID,0,
2014-11-26, 03:41:05,VALID,1007.07,VALID,0,INVALID,138.133,VALID,0.112112,VALID,23.772,VALID,215,VALID,0,
2014-11-26, 03:42:05,VALID,1007.06,VALID,0,INVALID,138.118,VALID,0.112112,VALID,23.7312,VALID,215,VALID,0,
2014-11-26, 03:43:05,VALID,1007.07,VALID,0,INVALID,138.102,VALID,0.112112,VALID,23.7507,VALID,215,VALID,0,
2014-11-26, 03:44:05,VALID,1007.08,VALID,0,INVALID,138.019,VALID,0,VALID,23.7312,VALID,215,VALID,0,
2014-11-26, 03:45:05,VALID,1007.07,VALID,0,INVALID,137.927,VALID,0.112112,VALID,23.772,VALID,215,VALID,0,
2014-11-26, 03:46:05,VALID,1007.04,VALID,0,INVALID,137.797,VALID,0.112112,VALID,23.7701,VALID,215,VALID,0,
2014-11-26, 03:47:05,VALID,1007.04,VALID,0,INVALID,137.607,VALID,0.112112,VALID,23.8109,VALID,215,VALID,0,
2014-11-26, 03:48:05,VALID,1007.03,VALID,0,INVALID,137.492,VALID,0.112112,VALID,23.8091,VALID,215,VALID,0,
2014-11-26, 03:49:05,VALID,1007.01,VALID,0,INVALID,137.363,VALID,0.112112,VALID,23.8091,VALID,215,VALID,0,
2014-11-26, 03:50:05,VALID,1006.99,VALID,0,INVALID,137.271,VALID,0,VALID,23.8286,VALID,215,VALID,0,
2014-11-26, 03:51:05,VALID,1007,VALID,0,INVALID,137.187,VALID,0.112112,VALID,23.8286,VALID,215,VALID,0,